Regional Weather Roundup
Issued by NWS Portland, ME

Current Version | Previous Version | Text Only | Print | Product List | Glossary Off
Versions: 1 2 3 4 5 6 7 8 9 10 11 12 13 14 15 16 17 18 19 20 21 22 23 24 25 26 27 28 29 30 31 32 33 34 35 36 37 38 39 40 41 42 43 44 45 46 47 48 49 50
000 ASUS41 KGYX 261110 RWRGYX WEATHER ROUNDUP FOR MAINE AND NEW HAMPSHIRE NATIONAL WEATHER SERVICE GRAY ME 700 AM EDT WED APR 26 2017 MEZ002-005-006-010-012-015-018-020-021-024-026-027-029-261200- MAINE CITY SKY/WX TMP DP RH WIND PRES REMARKS PORTLAND LGT RAIN 47 45 93 VRB7 30.02F FOG SANFORD LGT RAIN 45 44 97 NE9 30.01S FOG BAR HARBOR LGT RAIN 46 45 96 E10G18 30.10S FOG WISCASSET CLOUDY 50 49 96 NE3 30.06F FOG ROCKLAND FOG 45 45 100 E13 30.06S VSB 3/4 FRYEBURG CLOUDY 44 43 96 N5 30.05F LEWISTONAUBURN LGT RAIN 43 42 97 N8 30.05S FOG AUGUSTA CLOUDY 44 42 93 N6 30.07S FOG WATERVILLE LGT RAIN 44 43 96 N7 30.05S FOG BANGOR CLOUDY 49 47 93 SE12G20 30.08F GREENVILLE N/A 42 42 100 S3 30.06S MILLINOCKET LGT RAIN 41 41 100 NE5 30.14F FOG HOULTON LGT RAIN 41 41 100 VRB5 30.15F PRESQUE ISLE LGT RAIN 41 39 93 S7 30.15F FRENCHVILLE LGT RAIN 39 37 92 S10 30.11F FOG CARIBOU LGT RAIN 42 40 92 S7 30.13F FOG $$ NHZ002-005-008-009-011-012-014-261200- NEW HAMPSHIRE CITY SKY/WX TMP DP RH WIND PRES REMARKS PORTSMOUTH LGT RAIN 47 46 97 NE6 29.96S FOG ROCHESTER LGT RAIN 45 43 93 N9 29.97F FOG NASHUA LGT RAIN 47 47 100 N5 29.94S FOG MANCHESTER FOG 48 44 86 NE9 29.93S VSB 1 CONCORD LGT RAIN 46 44 93 NE7 29.95F FOG LACONIA LGT RAIN 44 43 96 NE6 29.99F PLYMOUTH RAIN 46 45 97 CALM 29.98F BERLIN CLOUDY 44 41 89 CALM 30.03R WHITEFIELD LGT RAIN 50 43 77 E14G22 29.97F JAFFREY CLOUDY 45 45 100 VRB5 29.93R FOG KEENE LGT RAIN 48 45 87 N10 29.93R LEBANON LGT RAIN 48 47 96 CALM 29.95F MT WASHINGTON DRZL/FOG 43 43 100 S43 N/A VSB 1/16 $$ VTZ005-007-008-261200- VERMONT CITY SKY/WX TMP DP RH WIND PRES REMARKS ST JOHNSBURY N/A 48 46 93 MISG 29.95F MONTPELIER FOG 45 45 100 CALM 30.00S VSB 1/2 BURLINGTON CLOUDY 50 49 96 CALM 29.92F $$ MAZ007-012-024-CTZ003-RIZ002-NYZ038-NYZ072-261200- SOUTHERN NEW ENGLAND AND NY CITY SKY/WX TMP DP RH WIND PRES REMARKS BOSTON FOG 50 50 100 NE15 29.91S VSB 1/4 WORCESTER LGT RAIN 44 42 93 N13 29.88R VSB 3/4 NANTUCKET CLOUDY 52 51 97 E22G29 29.86F FOG PROVIDENCE CLOUDY 55 55 100 NW3 29.84S FOG HARTFORD LGT RAIN 49 48 97 N14 29.86S FOG ALBANY LGT RAIN 50 48 93 N5 29.87F FOG NEW YORK CITY LGT RAIN 54 52 93 NE9 29.75S FOG $$ ANZ081-ANZ082-ANZ150-NHZ014-MEZ023>029-261200- COASTAL MARINE OBSERVATIONS STATION/POSITION TIME TEMP WIND PRES WAVE AIR SEA DIR/SP/G HT/PER (UTC) (F) (DEG/KT/KT) (MB) (FT/S) MOUNT DESERT ROC 1100 44 1017.9S MATINICUS ROCK 1000 44 110/ 22/ 25 1016.3F ISLE OF SHOALS 1000 45 30/ 26/ 28 1013.7F JEFFREYS LEDGE 1006 44 N/A 6/ 7 CASHES LEDGE BUO 0950 47 42 1015.9 6/ 7 GEORGES BANK BUO 1050 52 42 1017.3R 10/11 $$ .............KEY.............. WCI - WIND CHILL TC - TEMPERATURE IN CELSIUS VSB - VISIBILITY IN MILES HX - HEAT INDEX FAIR- INDICATES FEW OR NO CLOUDS BELOW 12,000 FT, WITH NO SIGNIFICANT WEATHER AND/OR OBSTRUCTIONS TO VISIBILITY.

USA.gov is the U.S. government's official web portal to all federal, state and local government web resources and services.